Location: Unspecified
(0.0000°N, 0.0000°E)
Time: 10:12:46
(UTC+00:00)

Vanguard 2 - Pass Details

Date: 21 December 2018
Orbit: 552 x 2939 km, 32.9° (Epoch: 17 January)

Event Time Altitude Azimuth Distance (km) Brightness Sun altitude
Rises 10:21:42 0° 220° (SW) 6,442 12.3 56.9°
Reaches altitude 10° 10:28:16 10° 205° (SSW) 5,047 12.0 58.0°
Maximum altitude 10:37:10 20° 165° (SSE) 3,614 11.8 59.4°
Drops below altitude 10° 10:43:52 10° 123° (ESE) 3,682 11.6 60.4°
Sets 10:47:33 0° 105° (ESE) 4,267 11.7 61.0°
